This is the latest recevied weather packets stored in our database for station/object HB9CEY-10. If no packets are shown the sender has not sent any weather packets the latest 10 day(s).
| Time | Temp. | Humidity | Pressure | Rain* | Wind** | Luminosity | Snow |
|---|---|---|---|---|---|---|---|
| 1777714133 | 20° C | 36% | 1023.1 hPa | - | - | - | - |
| 1777713233 | 19.44° C | 36% | 1023.2 hPa | - | - | - | - |
| 1777712333 | 18.89° C | 37% | 1023.4 hPa | - | - | - | - |
| 1777711433 | 18.89° C | 37% | 1023.5 hPa | - | - | - | - |
| 1777710533 | 18.89° C | 36% | 1023.6 hPa | - | - | - | - |
| 1777709633 | 19.44° C | 36% | 1023.7 hPa | - | - | - | - |
| 1777708732 | 18.89° C | 36% | 1023.7 hPa | - | - | - | - |
| 1777707833 | 18.33° C | 36% | 1023.8 hPa | - | - | - | - |
| 1777706932 | 18.33° C | 35% | 1023.9 hPa | - | - | - | - |
| 1777706032 | 17.78° C | 36% | 1024 hPa | - | - | - | - |
| 1777705132 | 16.11° C | 36% | 1024 hPa | - | - | - | - |
| 1777704232 | 16.11° C | 36% | 1024 hPa | - | - | - | - |
| 1777703332 | 15° C | 36% | 1024 hPa | - | - | - | - |
| 1777702432 | 13.33° C | 37% | 1024.1 hPa | - | - | - | - |
| 1777701532 | 11.67° C | 38% | 1024.1 hPa | - | - | - | - |
| 1777700632 | 10° C | 40% | 1024.1 hPa | - | - | - | - |
| 1777699732 | 9.44° C | 41% | 1024.2 hPa | - | - | - | - |
| 1777698832 | 9.44° C | 41% | 1024.1 hPa | - | - | - | - |
| 1777697932 | 9.44° C | 41% | 1024 hPa | - | - | - | - |
| 1777697032 | 8.89° C | 41% | 1024 hPa | - | - | - | - |
| 1777696132 | 8.89° C | 41% | 1023.9 hPa | - | - | - | - |
| 1777695232 | 9.44° C | 41% | 1024 hPa | - | - | - | - |
| 1777694332 | 8.89° C | 41% | 1024 hPa | - | - | - | - |
| 1777693432 | 8.89° C | 41% | 1024 hPa | - | - | - | - |
| 1777692532 | 9.44° C | 41% | 1024 hPa | - | - | - | - |
* Rain since midnight (hover to see other rain measurements)
** Current wind speed in m/s (hover to see current wind gust speed)